CW5018 Weather Reports


Display with metric or nautical units.
time (UTC)temp
F
wind
direction
speed
MPH
gust
MPH
rain 1hr
in
rain 24hr
in
rain mn
in
humidity
%
barometer
mb
20260503183518 82 194 3.0 0.0 0.00 0.00 0.00 7 1009.8
20260503182034 81 198 3.0 0.0 0.00 0.00 0.00 6 1009.8
20260503180522 80 254 3.0 0.0 0.00 0.00 0.00 10 1010.0
20260503175036 78 227 2.0 0.0 0.00 0.00 0.00 9 1010.3
20260503173531 77 157 1.0 0.0 0.00 0.00 0.00 11 1010.5
20260503172026 74 225 1.0 0.0 0.00 0.00 0.00 15 1010.6
20260503170541 71 220 0.0 0.0 0.00 0.00 0.00 17 1009.9
20260503150544 50 232 0.0 0.0 0.00 0.00 0.00 70 1010.6
20260503130521 42 232 0.0 0.0 0.00 0.00 0.00 66 1010.5
20260503110526 45 232 0.0 0.0 0.00 0.00 0.00 62 1010.4
20260503080542 50 232 0.0 0.0 0.00 0.00 0.00 54 1010.4
20260503072023 52 232 0.0 0.0 0.00 0.00 0.00 51 1011.1
20260503070518 52 232 0.0 0.0 0.00 0.00 0.00 50 1011.0
20260503055023 56 232 0.0 0.0 0.00 0.00 0.00 41 1011.0
20260503053538 56 232 0.0 0.0 0.00 0.00 0.00 39 1011.0
20260503052034 57 232 0.0 0.0 0.00 0.00 0.00 39 1011.0
20260503050520 57 232 0.0 0.0 0.00 0.00 0.00 38 1010.2
20260503045105 58 232 0.0 0.0 0.00 0.00 0.00 36 1009.9
20260503043531 60 232 0.0 0.0 0.00 0.00 0.00 32 1010.6
20260503042021 61 232 0.0 0.0 0.00 0.00 0.00 30 1010.3
20260503040557 63 232 0.0 0.0 0.00 0.00 0.00 28 1009.5
20260503035021 66 232 0.0 0.0 0.00 0.00 0.00 22 1009.3
20260503033557 68 229 0.0 0.0 0.00 0.00 0.00 19 1008.9
20260503032031 70 229 0.0 0.0 0.00 0.00 0.00 16 1009.6
20260503030526 72 230 0.0 0.0 0.00 0.00 0.00 12 1009.4
20260503025019 74 182 0.0 0.0 0.00 0.00 0.00 8 1009.3
20260503023530 75 178 1.0 0.0 0.00 0.00 0.00 8 1008.9
20260503022019 76 140 1.0 0.0 0.00 0.00 0.00 8 1008.9
20260503020533 76 156 1.0 0.0 0.00 0.00 0.00 7 1008.1
20260503015033 77 106 1.0 0.0 0.00 0.00 0.00 8 1008.8
20260503013524 77 138 2.0 0.0 0.00 0.00 0.00 7 1008.8
20260503012024 78 114 3.0 0.0 0.00 0.00 0.00 6 1008.8
20260503010542 79 153 2.0 0.0 0.00 0.00 0.00 6 1008.6
20260503005022 80 162 2.0 0.0 0.00 0.00 0.00 6 1008.6
20260503003520 79 146 2.0 0.0 0.00 0.00 0.00 5 1008.6
20260503002033 80 92 3.0 0.0 0.00 0.00 0.00 6 1008.6
20260503000534 81 107 2.0 0.0 0.00 0.00 0.00 5 1008.6
20260502235033 80 162 3.0 0.0 0.00 0.00 0.00 4 1008.6
20260502233528 80 140 4.0 0.0 0.00 0.00 0.00 5 1008.7
20260502232042 80 74 3.0 0.0 0.00 0.00 0.00 5 1008.9
20260502230540 81 194 2.0 0.0 0.00 0.00 0.00 5 1009.2
20260502225026 81 117 4.0 0.0 0.00 0.00 0.00 4 1009.4
20260502223520 80 114 2.0 0.0 0.00 0.00 0.00 6 1009.5
20260502222035 79 103 3.0 0.0 0.00 0.00 0.00 6 1009.7
20260502220521 78 213 4.0 0.0 0.00 0.00 0.00 7 1009.1
20260502215102 77 198 3.0 0.0 0.00 0.00 0.00 8 1009.0
20260502213530 77 244 3.0 0.0 0.00 0.00 0.00 10 1009.9
20260502212026 78 200 1.0 0.0 0.00 0.00 0.00 11 1010.2
20260502210521 76 224 1.0 0.0 0.00 0.00 0.00 11 1009.3
20260502205035 73 180 2.0 0.0 0.00 0.00 0.00 17 1009.4
20260502203529 75 67 1.0 0.0 0.00 0.00 0.00 12 1010.9
20260502202045 77 186 1.0 0.0 0.00 0.00 0.00 9 1011.1
20260502200530 77 205 2.0 0.0 0.00 0.00 0.00 10 1010.9
20260502195044 78 173 2.0 0.0 0.00 0.00 0.00 9 1010.6
20260502193520 78 246 3.0 0.0 0.00 0.00 0.00 10 1010.6
20260502192034 78 237 3.0 0.0 0.00 0.00 0.00 9 1010.4
20260502190530 78 199 5.0 0.0 0.00 0.00 0.00 12 1010.2
20260502185024 78 254 3.0 0.0 0.00 0.00 0.00 8 1010.1